Location: Plzen
(49.7500°N, 13.3670°E)
Time: 04:51:13
(UTC+02:00)

ISS - Pass Details

Date: 19 May 2021
Orbit: 417 x 422 km, 51.6° (Epoch: 13 June)

Event Time Altitude Azimuth Distance (km) Brightness Sun altitude
Rises 02:06:34 0° 288° (WNW) 2,372 0.1 -19.1°
Reaches altitude 10° 02:08:43 10° 282° (WNW) 1,506 -1.0 -19.0°
Enters shadow 02:09:12 13° 279° (W) 1,318 -1.3 -18.9°
